Regional Weather Roundup
Issued by NWS

Home | Current Version | Previous Version | Graphics & Text | Print | Product List | Glossary On
Versions: 1 2 3 4 5 6 7 8 9 10 11 12 13 14 15 16 17 18 19 20 21 22 23 24 25 26 27 28
000
ASUS45 KCYS 020310
RWRWY

WYOMING REGIONAL WEATHER ROUNDUP
NATIONAL WEATHER SERVICE CHEYENNE WY
900 PM MDT SUN MAY 01 2016

NOTE:  "FAIR" INDICATES FEW OR NO CLOUDS BELOW 12,000 FEET
WITH NO SIGNIFICANT WEATHER AND/OR OBSTRUCTIONS TO VISIBILITY.

WYZ001-020400-
YELLOWSTONE NATIONAL PARK

CITY           SKY/WX    TMP DP  RH WIND       PRES   REMARKS
LK YELLOWSTONE   N/A     31  21  66 CALM      30.26R
W YELLOWSTONE  NOT AVBL

$$
WYZ002>013-054>058-071-098>099-020400-
NORTHERN WYOMING

CITY           SKY/WX    TMP DP  RH WIND       PRES   REMARKS
JACKSON        FAIR      45  18  33 N15       30.18S
CODY           FAIR      46  25  42 SE6       30.22R
GREYBULL       FAIR      52  25  35 SW7       30.19R
WORLAND        FAIR      44  34  67 S8        30.21R
SHERIDAN       FAIR      49  32  52 SE3       30.22R
BUFFALO          N/A    N/A N/A N/A MISG      30.25R
GILLETTE       FAIR      36  31  82 SW3       30.24R
HULETT         FAIR      45  30  57 SE6       30.25R
NEWCASTLE      FAIR      48  27  43 N7        30.23R

$$
WYZ014>020-022>026-101>103-020400-
CENTRAL WYOMING

CITY           SKY/WX    TMP DP  RH WIND       PRES   REMARKS
BIG PINEY      FAIR      35  20  54 W7        30.24R WCI  29
PINEDALE       FAIR      37  18  44 SW7       30.22R WCI  32
DUBOIS         NOT AVBL
LANDER         FAIR      40  27  59 SW8       30.24R WCI  34
RIVERTON       FAIR      45  26  47 CALM      30.25R
CASPER         FAIR      42  25  50 E6        30.24R
DOUGLAS        FAIR      39  29  67 CALM      30.26R

$$
WYZ021-027>030-104>119-020400-
SOUTHERN WYOMING

CITY           SKY/WX    TMP DP  RH WIND       PRES   REMARKS
EVANSTON       FAIR      38  22  52 E13       30.18R WCI  30
KEMMERER         N/A     34  23  64 E14G23    30.22R WCI  24
FORT BRIDGER   CLEAR     36  28  75 E10       30.24R WCI  28
ROCK SPRINGS   FAIR      37  24  59 NE20      30.21R WCI  27
DIXON          FAIR      42  15  33 NE8       30.16R
RAWLINS        FAIR      31  22  69 NE8       30.24R WCI  23
SARATOGA       FAIR      32  23  69 S10       30.22R WCI  24
LARAMIE        FAIR      27  20  75 SE7       30.26R WCI  19
CHEYENNE       FAIR      34  23  64 NW5       30.27R WCI  30
TORRINGTON     FAIR      41  33  73 SE3       30.24R
PINE BLUFFS    FAIR      32  28  86 W5        30.27S WCI  27

$$




USA.gov is the U.S. government's official web portal to all federal, state and local government web resources and services.